Jump to content

Chicago WX

Members
  • Posts

    18,060
  • Joined

About Chicago WX

Profile Information

  • Four Letter Airport Code For Weather Obs (Such as KDCA)
    KIKK
  • Gender
    Not Telling
  • Location:
    IKK

Recent Profile Visitors

5,510 profile views
  1. Going to end with 11.98" of rainfall for met summer IMBY. About half of which (6.14") fell in the last 10 days of June. June: 6.91" July: 1.76" August: 3.31"
  2. 0130 PM HEAVY RAIN GIBSON CITY 40.47N 88.37W 08/12/2021 M8.76 INCH FORD IL PUBLIC PRIVATE WEATHER STATION REPORTS 8.76 INCHES OF RAINFALL SINCE MIDNIGHT. 8.1 INCHES OCCURRED WITH MOST RECENT STORMS WHICH BEGAN AT 8:30 AM. MULTIPLE 1 HOUR PERIODS WITH OVER 2 INCHES OF RAINFALL. LIGHT RAIN ONGOING.
  3. 1.76" IMBY for July. Nicely drier than the 6.91" in June. Pool time has been on the upswing.
  4. chad and you protesting? #stopthesteal #makelafhotagain
  5. Looks like they fixed LAF. Chad is not thrilled I assume. June 2021 avg high temps LAF: 88.1˚ IND: 83.1˚ July 2021 avg high temps LAF: 81.8˚ IND: 82.3˚
  6. If I had received all the rain WPC has predicted for MBY this summer (and my p&c forecasts as well), I'd be over 30" for the season. Anyways, been a nice couple of days with no rain. Hopefully we can avoid most of it later today and tomorrow as well. Then it looks like a nice warm and dry stretch for a time. Pool time incoming.
  7. Relatively small area of LOT's CWA got raked by heavy rain last night (parts of LaSalle and Grundy counties). Was watching on radar last night, and a north/south band just parked itself over that area and poured. https://www.weather.gov/lot/2021jul12 1019 PM HEAVY RAIN 4 NW VERONA 41.25N 88.55W 07/12/2021 M6.19 INCH GRUNDY IL MESONET 3 HOUR RAINFALL TOTAL OF 6.19 INCHES FROM A PERSONAL WEATHER STATION.
  8. I'm certainly no fan of the high heat/humidity combo...but this struggling to get into the low 70's everyday with solid overcast that'd make January blush, is for the birds. Misery mist at times too.
  9. Can verify first cicadas of the summer. Actually heard a few yesterday afternoon, and thought whoa...they're here. Also, lots and lots of manufactured t&l last night.
  10. 5.83" total at mi casa during this stormy stretch (6/23-30). Majority of it was from the 25th thru the early evening of the 26th (4.47").
  11. Finally got under some legit rains here last night...2.02" here from the evening/overnight storms. Really, was expecting worse with how the radar looked when I went to bed. My weather station had a peak hourly rainfall rate of 4.13" at 10:00pm. Ground soaked it up like a sponge though. 3.40" total since this shebang started on Thursday.
  12. This is awful. And only the beginning of several days of rain. So bad…
  13. INZ028-029-035-036-043>045-051>053-122000- WEST CENTRAL INDIANA CITY SKY/WX TMP DP RH WIND PRES REMARKS CRAWFORDSVL + MOSUNNY 89 64 44 CALM 29.87F HX 90 GREENCASTLE + FAIR 90 67 45 CALM 29.87F HX 93 LAFAYETTE MOSUNNY 98 70 40 CALM 29.83F HX 105 TERRE HAUTE NOT AVBL INZ030>032-037>040-046>048-054>057-064-065-122000- CENTRAL INDIANA CITY SKY/WX TMP DP RH WIND PRES REMARKS FRANKFORT + MOSUNNY 91 68 46 N5 29.86F HX 95 GREENWOOD *+ PTSUNNY 90 69 48 SW3 29.87F HX 94 INDIANAPOLIS PTSUNNY 92 63 38 NW9 29.86S HX 93 -EAGLE CREEK MOSUNNY 92 67 43 VRB3 29.85F HX 95 MARION + MOSUNNY 89 66 46 N5 29.87S HX 92 MT COMFORT *+ PTSUNNY 91 73 55 CALM 29.87S HX 100 SHELBYVILLE MOSUNNY 93 69 45 W8 29.85S HX 98
×
×
  • Create New...